TimeEDT,TemperatureF,Dew PointF,Humidity,Sea Level PressureIn,VisibilityMPH,Wind Direction,Wind SpeedMPH,Gust SpeedMPH,PrecipitationIn,Events,Conditions,WindDirDegrees,DateUTC
12:53 AM,50.0,48.0,93,30.23,10.0,SSE,3.5,-,0.03,Rain,Light Rain,150,2013-05-20 04:53:00
1:53 AM,51.1,48.9,92,30.20,7.0,Calm,Calm,-,0.03,Rain,Light Rain,0,2013-05-20 05:53:00
2:53 AM,51.1,48.9,92,30.17,3.0,Calm,Calm,-,0.11,Rain,Rain,0,2013-05-20 06:53:00
3:53 AM,51.1,50.0,96,30.14,3.0,SSE,3.5,-,0.13,Rain,Light Rain,160,2013-05-20 07:53:00
4:53 AM,53.1,51.1,93,30.12,8.0,Variable,6.9,-,0.06,Rain,Light Rain,0,2013-05-20 08:53:00
5:50 AM,53.6,51.8,94,30.10,2.0,South,5.8,-,0.02,,Overcast,170,2013-05-20 09:50:00
5:53 AM,53.1,51.1,93,30.10,2.0,South,8.1,-,0.02,,Overcast,180,2013-05-20 09:53:00
6:05 AM,53.6,51.8,94,30.08,1.8,South,5.8,-,N/A,,Overcast,170,2013-05-20 10:05:00
6:37 AM,53.6,51.8,94,30.08,2.0,Variable,6.9,-,0.01,,Overcast,0,2013-05-20 10:37:00
7:21 AM,53.6,51.8,94,30.07,1.0,Variable,6.9,-,0.02,Rain,Rain,0,2013-05-20 11:21:00
7:34 AM,53.6,51.8,94,30.08,2.0,Variable,4.6,-,0.05,Rain,Light Rain,0,2013-05-20 11:34:00
7:53 AM,52.0,51.1,97,30.06,1.5,Variable,3.5,-,0.09,Rain,Rain,0,2013-05-20 11:53:00
8:07 AM,53.6,51.8,94,30.07,2.5,Calm,Calm,-,0.04,Rain,Light Rain,0,2013-05-20 12:07:00
8:14 AM,51.8,51.8,100,30.07,4.0,Calm,Calm,-,0.05,Rain,Rain,0,2013-05-20 12:14:00
8:53 AM,53.1,51.1,93,30.05,10.0,Calm,Calm,-,0.07,,Overcast,0,2013-05-20 12:53:00
10:53 AM,55.0,53.1,93,30.01,4.0,SSW,4.6,-,0.03,Rain,Rain,210,2013-05-20 14:53:00
11:50 AM,57.2,53.6,88,30.00,10.0,Calm,Calm,-,0.02,,Overcast,0,2013-05-20 15:50:00
11:53 AM,57.0,54.0,89,30.00,10.0,WSW,4.6,-,0.02,,Overcast,250,2013-05-20 15:53:00
12:53 PM,61.0,55.9,83,29.98,10.0,Variable,3.5,-,N/A,,Overcast,0,2013-05-20 16:53:00
1:39 PM,62.6,55.4,77,29.97,10.0,Calm,Calm,-,N/A,,Overcast,0,2013-05-20 17:39:00
2:11 PM,64.4,57.2,77,29.97,10.0,Calm,Calm,-,N/A,,Overcast,0,2013-05-20 18:11:00
2:53 PM,68.0,57.9,70,29.96,10.0,Calm,Calm,-,N/A,,Mostly Cloudy,0,2013-05-20 18:53:00
3:53 PM,70.0,57.0,63,29.94,10.0,Variable,3.5,-,N/A,,Partly Cloudy,0,2013-05-20 19:53:00
4:53 PM,72.0,57.9,61,29.93,10.0,SW,5.8,-,0.01,,Clear,230,2013-05-20 20:53:00
5:53 PM,69.1,59.0,70,29.94,10.0,South,3.5,-,N/A,,Clear,180,2013-05-20 21:53:00
6:53 PM,66.0,57.9,75,29.96,10.0,SSE,3.5,-,N/A,,Clear,160,2013-05-20 22:53:00
7:53 PM,62.1,57.0,84,29.97,10.0,Calm,Calm,-,N/A,,Partly Cloudy,0,2013-05-20 23:53:00
8:53 PM,60.1,55.9,86,29.98,10.0,East,3.5,-,N/A,,Clear,90,2013-05-21 00:53:00
9:35 PM,55.4,53.6,94,30.00,10.0,Calm,Calm,-,N/A,,Scattered Clouds,0,2013-05-21 01:35:00
9:46 PM,55.4,53.6,94,29.99,10.0,Calm,Calm,-,N/A,,Mostly Cloudy,0,2013-05-21 01:46:00
10:53 PM,55.9,53.1,90,30.01,10.0,ESE,4.6,-,N/A,,Overcast,110,2013-05-21 02:53:00
11:53 PM,55.0,52.0,89,30.03,10.0,Variable,3.5,-,N/A,,Overcast,0,2013-05-21 03:53:00